• MPC Preparation (Info)

  • MPEC 2016-O160: 2014 WQ509

    The following Minor Planet Electronic Circular may be linked-to from your own Web pages, but must not otherwise be redistributed electronically.

    A form allowing access to any MPEC is at the bottom of this page.


    Read MPEC 2016-O159 Read MPEC 2016-O161


    M.P.E.C. 2016-O160                               Issued 2016 July 17, 09:04 UT
    
         The Minor Planet Electronic Circulars contain information on unusual
             minor planets and routine data on comets.  They are published
        on behalf of Division F of the International Astronomical Union by the
              Minor Planet Center, Smithsonian Astrophysical Observatory,
                              Cambridge, MA 02138, U.S.A.
    
                 Prepared using the Tamkin Foundation Computer Network
    
                                  MPC@CFA.HARVARD.EDU
                URL https://www.minorplanetcenter.net/    ISSN 1523-6714
    
                                      2014 WQ509
    
    Observations:
         K14Wo9Q  C2013 04 11.24846 06 35 16.633+31 31 42.72         22.4 wLEO160F51
         K14Wo9Q  C2013 04 11.25311 06 35 16.639+31 31 42.57         22.1 wLEO160F51
         K14Wo9Q  C2013 04 11.25774 06 35 16.632+31 31 42.84         22.2 wLEO160F51
         K14Wo9Q  C2013 04 11.26237 06 35 16.633+31 31 42.82         22.2 wLEO160F51
         K14Wo9Q  C2013 12 26.37296 06 45 43.567+31 40 45.98         22.1 wLEO160F51
         K14Wo9Q  C2013 12 26.38838 06 45 43.470+31 40 46.16         22.0 wLEO160F51
         K14Wo9Q  C2013 12 26.40382 06 45 43.377+31 40 46.43         21.9 wLEO160F51
         K14Wo9Q* C2014 11 17.40839 06 54 27.273+31 32 56.15         21.9 wLEO160F51
         K14Wo9Q  C2014 11 17.42144 06 54 27.223+31 32 56.39         22.2 wLEO160F51
         K14Wo9Q  C2014 11 17.43456 06 54 27.183+31 32 56.45         22.1 wLEO160F51
         K14Wo9Q  C2014 11 17.44765 06 54 27.135+31 32 56.65         22.1 wLEO160F51
         K14Wo9Q  C2015 01 14.42757 06 49 34.299+31 42 56.63         21.9 wLEO160F51
         K14Wo9Q  C2015 01 14.44046 06 49 34.226+31 42 56.71         22.2 wLEO160F51
         K14Wo9Q  C2015 01 14.45337 06 49 34.155+31 42 56.79         22.2 wLEO160F51
         K14Wo9Q  C2015 01 14.46619 06 49 34.087+31 42 56.80         21.9 wLEO160F51
         K14Wo9Q  C2015 01 23.28721 06 48 46.794+31 43 24.04         22.1 wLEO160F51
         K14Wo9Q  C2015 01 23.30114 06 48 46.697+31 43 23.99         22.1 wLEO160F51
         K14Wo9Q  C2015 01 23.31512 06 48 46.629+31 43 23.66         22.0 wLEO160F51
         K14Wo9Q  C2015 01 23.32920 06 48 46.550+31 43 23.75         22.1 wLEO160F51
    
    Observer details:
    F51 Pan-STARRS 1, Haleakala.  Observers B. Gibson, T. Goggia, N. Primak,
        A. Schultz, M. Willman.  Measurers K. Chambers, S. Chastel, Y.-T. Chen,
        L. Denneau, H. Flewelling, M. Holman, M. Huber, R. Jedicke, M. Lackner,
        E. Lilly, H.-W. Lin, E. Magnier, M. Micheli, M. Payne, P. Veres,
        R. Wainscoat, C. Waters, R. Weryk.  1.8-m Ritchey-Chretien + CCD.
    
    Orbital elements:
    2014 WQ509
    Epoch 2016 July 31.0 TT = JDT 2457600.5                 MPC
    M 224.80133              (2000.0)            P               Q
    n   0.00398532     Peri.  207.61393     -0.37259585     +0.92127517
    a  39.3997679      Node    40.78418     -0.81685763     -0.26860219
    e   0.1414401      Incl.    9.82509     -0.44035888     -0.28125596
    P 247              H    5.5           G   0.15           U   4
    Residuals in seconds of arc
    130411 F51  0.2+  0.1-    141117 F51  0.0   0.1+    150114 F51  0.0   0.0
    130411 F51  0.1+  0.2-    141117 F51  0.0   0.1+    150123 F51  0.2+  0.2+
    130411 F51  0.1-  0.1+    141117 F51  0.0   0.0     150123 F51  0.1-  0.1+
    130411 F51  0.2-  0.1+    141117 F51  0.0   0.0     150123 F51  0.0   0.3-
    131226 F51  0.1+  0.0     150114 F51  0.0   0.0     150123 F51  0.1-  0.2-
    131226 F51  0.0   0.0     150114 F51  0.0   0.0
    131226 F51  0.1-  0.2+    150114 F51  0.0   0.0
    
    Ephemeris:
    2014 WQ509               a,e,i = 39.40, 0.14, 10                 q = 33.827
    Date    TT    R. A. (2000) Decl.     Delta      r     Elong.  Phase     V
    2016 06 17    06 56 49.9 +31 19 45  44.6651 43.7015    18.3     0.4    22.0
    ...
    2016 07 02    06 58 32.4 +31 17 18  44.7026 43.6981     8.8     0.2    22.0
    ...
    2016 07 10    06 59 27.9 +31 16 15  44.6975 43.6964     9.9     0.2    22.0
    ...
    2016 07 16    07 00 09.2 +31 15 35  44.6821 43.6950    13.6     0.3    22.0
    2016 07 17    07 00 16.1 +31 15 28  44.6786 43.6948    14.4     0.3    22.0
    2016 07 18    07 00 22.9 +31 15 23  44.6748 43.6946    15.1     0.3    22.0
    ...
    2016 07 24    07 01 03.3 +31 14 52  44.6465 43.6932    20.0     0.5    22.0
    ...
    2016 08 01    07 01 55.6 +31 14 22  44.5942 43.6915    26.9     0.6    22.1
    ...
    2016 08 16    07 03 26.0 +31 14 05  44.4540 43.6881    40.4     0.9    22.1
    
    A. U. Tomatic                (C) Copyright 2016 MPC           M.P.E.C. 2016-O160
    

    Read MPEC 2016-O159 Read MPEC 2016-O161


    MPEC number:

    Enter an MPEC number in one of the following forms:

    • 1997-B01 (the full form)
    • J97B01 (the packed version of the full form)
    • B01 (the abbreviated form)